EST,Max TemperatureF,Mean TemperatureF,Min TemperatureF,Max Dew PointF,MeanDew PointF,Min DewpointF,Max Humidity, Mean Humidity, Min Humidity, Max Sea Level PressureIn, Mean Sea Level PressureIn, Min Sea Level PressureIn, Max VisibilityMiles, Mean VisibilityMiles, Min VisibilityMiles, Max Wind SpeedMPH, Mean Wind SpeedMPH, Max Gust SpeedMPH,PrecipitationIn, CloudCover, Events, WindDirDegrees
2012-11-1,,,,,,,,,,29.83,29.77,29.73,,,,,,,0.00,,,-1
2012-11-2,,,,,,,,,,30.09,29.97,29.83,,,,,,,0.00,,,-1
2012-11-3,,,,,,,,,,30.20,30.16,30.10,,,,,,,0.00,,,-1
2012-11-4,,,,,,,,,,30.21,30.18,30.17,,,,,,,0.00,,,-1
2012-11-5,,,,,,,,,,30.22,30.18,30.15,,,,,,,0.00,,,-1
2012-11-6,23,,23,23,23,23,100,100,100,30.14,30.04,29.95,10,10,10,0,0,,0.00,,,-1
2012-11-7,,,,,,,,,,30.15,30.03,29.95,,,,,,,0.00,,,-1
2012-11-8,51,42,32,34,31,29,88,64,44,30.23,30.18,30.15,10,8,5,5,3,,0.00,0,,240
2012-11-9,57,42,28,46,33,26,100,83,51,30.22,30.15,30.09,10,4,2,10,2,,0.29,3,Rain,183
2012-11-10,68,60,51,49,45,43,77,63,48,30.14,30.09,30.04,10,10,9,15,6,20,0.00,5,,191
2012-11-11,68,60,51,45,42,36,68,53,39,30.16,30.07,29.97,10,10,10,21,12,33,0.00,0,,188
2012-11-12,61,48,34,54,38,22,97,81,52,30.33,30.07,29.94,10,8,2,17,11,25,0.59,7,Rain-Snow,240
2012-11-13,39,32,25,27,21,19,81,62,47,30.57,30.47,30.35,10,10,10,9,5,,0.00,5,,277
2012-11-14,39,30,21,27,23,18,89,73,53,30.61,30.54,30.45,10,10,9,8,2,,0.00,0,,96
2012-11-15,46,35,24,31,27,21,96,78,54,30.45,30.40,30.36,10,7,4,5,1,,0.00,0,,345
2012-11-16,52,38,24,32,26,21,93,72,36,30.53,30.48,30.40,10,7,2,4,0,,0.00,0,,40
2012-11-17,54,40,25,34,28,22,92,71,37,30.63,30.57,30.53,10,8,3,7,2,,0.00,0,,90
2012-11-18,54,42,30,37,32,29,100,81,43,30.53,30.49,30.43,10,5,0,8,4,,0.00,1,Fog,62
2012-11-19,55,42,28,35,30,25,93,75,37,30.42,30.33,30.18,10,6,2,5,0,,0.00,0,,116
2012-11-20,57,48,39,41,38,35,86,66,47,30.18,30.14,30.09,10,10,8,4,0,,0.00,6,,228
2012-11-21,59,46,32,43,36,30,100,88,53,30.26,30.20,30.16,8,3,0,7,1,,0.00,0,Fog,212
2012-11-22,62,47,32,44,39,32,100,79,46,30.20,30.10,29.87,10,4,0,21,5,28,0.01,2,Fog-Rain,193
2012-11-23,55,42,30,50,33,21,93,73,57,30.11,29.92,29.80,10,9,5,16,12,32,0.11,7,Rain-Snow,252
2012-11-24,33,32,30,23,22,19,72,66,59,30.19,30.14,30.11,10,10,9,13,7,21,0.00,8,Snow,259
2012-11-25,43,36,28,26,23,19,85,66,49,30.09,29.97,29.88,10,10,10,12,7,18,0.00,3,,228
2012-11-26,41,32,24,30,24,21,92,73,55,30.32,30.20,30.06,10,8,2,9,2,,0.00,4,,296
2012-11-27,37,30,24,23,19,17,75,62,43,30.41,30.34,30.30,10,10,10,9,4,,0.00,2,,327
2012-11-28,42,34,25,24,21,18,75,65,49,30.38,30.34,30.28,10,10,10,9,5,,0.00,3,,230
2012-11-29,48,37,26,29,25,20,81,65,44,30.36,30.30,30.22,10,9,6,13,6,22,0.00,1,,204
2012-11-30,51,44,36,34,30,27,86,61,46,30.22,30.18,30.12,10,10,6,12,4,,0.00,4,,146